Regional Weather Roundup
Issued by NWS

Home | Current Version | Previous Version | Graphics & Text | Print | Product List | Glossary On
Versions: 1 2 3 4 5 6 7 8 9 10 11 12 13 14 15 16 17 18 19 20 21 22 23 24 25 26 27 28 29 30 31 32 33 34 35 36 37 38 39 40 41 42 43 44 45 46 47 48 49 50
983
ASUS45 KBOI 230210
RWRID

IDAHO REGIONAL WEATHER ROUNDUP
NATIONAL WEATHER SERVICE BOISE ID
800 PM MDT FRI JUL 22 2016

NOTE: "FAIR" INDICATES FEW OR NO CLOUDS BELOW 12000 FEET
WITH NO SIGNIFICANT WEATHER AND/OR OBSTRUCTIONS TO VISIBILITY

IDZ012-014-230300-
SOUTHWEST IDAHO


CITY           SKY/WX    TMP DP  RH WIND       PRES   REMARKS
BOISE          SUNNY     88  32  13 NW13      30.03F
CALDWELL       NOT AVBL
MOUNTAIN HOME  SUNNY     88  38  17 N21G30    30.00F
$$

IDZ016-017-230300-
SOUTHCENTRAL IDAHO


CITY           SKY/WX    TMP DP  RH WIND       PRES   REMARKS
BURLEY         SUNNY     79  40  24 W12       30.07S
JEROME         SUNNY     83  36  18 SW10      30.08R
TWIN FALLS     SUNNY     83  34  17 W7        30.09S
$$

IDZ019>023-230300-
SOUTHEAST IDAHO


CITY           SKY/WX    TMP DP  RH WIND       PRES   REMARKS
IDAHO FALLS    CLEAR     84  26  12 SW12      30.06S
POCATELLO      PTCLDY    84  34  16 SW10      30.08S
REXBURG        CLEAR     83  32  16 SW12      30.06R
$$

IDZ006-010-011-018-031-032-230300-
CENTRAL IDAHO MOUNTAINS


CITY           SKY/WX    TMP DP  RH WIND       PRES   REMARKS
MCCALL         SUNNY     74  35  24 W9        30.18S
HAILEY         SUNNY     79  30  17 NW12      30.15S
STANLEY          N/A     71  28  20 VRB6      30.25S
SALMON         SUNNY     84  27  12 SW17      29.97R
CHALLIS        SUNNY     82  18   9 SW12      30.09R
$$

IDZ002-004-006-007-026-230300-
NORTHERN IDAHO


CITY           SKY/WX    TMP DP  RH WIND       PRES   REMARKS
LEWISTON       SUNNY     81  43  26 W20G25    30.07R
LOWELL           N/A     74  56  53 CALM      30.08R
COEUR D`ALENE  PTSUNNY   63  54  72 S5        30.09S
MULLAN PASS    LGT RAIN  51  45  79 VRB6      30.22F
$$




USA.gov is the U.S. government's official web portal to all federal, state and local government web resources and services.